Location: Macksville High School
(37.9611°N, 99.9654°W)
Time: 01:16:02
(UTC+00:00)

CZ-2C R/B - Pass Details

Date: 17 January 2021
Orbit: 389 x 584 km, 35.0° (Epoch: 07 March)

Event Time Altitude Azimuth Distance (km) Brightness Sun altitude
Rises 12:38:13 0° 215° (SW) 2,652 4.6 -14.8°
Reaches altitude 10° 12:41:12 10° 193° (SSW) 1,721 3.9 -14.2°
Maximum altitude 12:43:38 16° 155° (SSE) 1,363 3.9 -13.7°
Drops below altitude 10° 12:45:58 10° 117° (ESE) 1,649 5.1 -13.3°
Sets 12:48:44 0° 94° (E) 2,481 6.4 -12.8°
